Find Starlink 4202

NORAD ID: 52848 Int'l Des: 2022-062 Owner: SPXS Country: US Constellation: starlink operational
LEOCIRCULAR

現在のビュー

3D地球を読み込み中...

About Starlink 4202

Starlink 4202 (NORAD 52848) is a starlink constellation satellite (v1.5) launched Jun 17, 2022 by SPXS of US. It operates in LEO, CIRCULAR orbit with a mass of 297.00 kg.

Starlink 4202について

説明を読み込み中...

次回通過

Passes for default location (London). Set your location on the main map for personalized predictions.

高度履歴

Loading altitude history...

軌道要素

1 52848U 22062U 26192.99808014 .00000147 00000-0 27298-4 0 9992
2 52848 53.1597 195.8325 0000953 86.9746 273.1354 15.08833266224554
Epoch: Jul 11, 2026 • Age: 24 hours

現在のステータス

高度 543.6 km
遠地点 / 近地点 N/A
速度 7.60 km/s
衛星直下点 43.56°N, 55.39°W
打ち上げ日 Jun 17, 2022
運用期間 4 years
タイプ internet

技術仕様

分類 Payload
質量 297.00 kg
乾燥質量 275.00 kg
総質量 297.00 kg
長さ 0.20 m
直径 2.80 m
スパン 9.00 m
形状 Box + pan
製造者 SPXS
バスタイプ Starlink
フェーズステータス In Orbit
所有者/国 SPXS/US

Most Searched